EW2642 Weather Reports


Display with metric or nautical units.
time (UTC)temp
F
wind
direction
speed
MPH
gust
MPH
rain 1hr
in
rain 24hr
in
rain mn
in
humidity
%
barometer
mb
20260903103024 60 151 3.0 4.0 0.00 0.00 0.00 53 851.3
20260903101540 61 164 2.0 5.0 0.00 0.00 0.00 50 851.2
20260903100029 62 178 1.0 4.0 0.00 0.00 0.00 46 851.3
20260903094527 63 137 1.0 7.0 0.00 0.00 0.00 46 851.3
20260903093037 61 198 5.0 8.0 0.00 0.00 0.00 46 851.3
20260903091526 59 204 7.0 9.0 0.00 0.00 0.00 52 851.3
20260903090024 59 132 3.0 7.0 0.00 0.00 0.00 54 851.5
20260903084532 61 182 2.0 9.0 0.00 0.00 0.00 48 851.2
20260903083026 63 132 4.0 7.0 0.00 0.00 0.00 45 851.4
20260903081527 64 167 5.0 9.0 0.00 0.00 0.00 40 851.6
20260903080037 60 169 5.0 8.0 0.00 0.00 0.00 44 851.5
20260903074524 60 144 3.0 8.0 0.00 0.00 0.00 48 851.7
20260903073031 63 181 4.0 6.0 0.00 0.00 0.00 46 851.8
20260903071527 64 170 2.0 6.0 0.00 0.00 0.00 46 851.8
20260903070026 66 183 4.0 6.0 0.00 0.00 0.00 39 851.8
20260903064523 69 161 3.0 5.0 0.00 0.00 0.00 38 851.7
20260903063024 69 188 4.0 9.0 0.00 0.00 0.00 35 851.7
20260903061523 69 163 5.0 9.0 0.00 0.00 0.00 35 851.7
20260903060023 70 184 3.0 8.0 0.00 0.00 0.00 35 851.7
20260903054525 70 172 3.0 8.0 0.00 0.00 0.00 35 851.7
20260903053026 69 184 3.0 5.0 0.00 0.00 0.00 37 851.8
20260903051527 69 225 4.0 11.0 0.00 0.00 0.00 39 851.8
20260903050028 68 169 4.0 10.0 0.00 0.00 0.00 43 851.8
20260903044524 69 168 4.0 7.0 0.00 0.00 0.00 43 851.8
20260903043030 70 194 5.0 9.0 0.00 0.00 0.00 42 851.8
20260903041524 70 193 6.0 9.0 0.00 0.00 0.00 41 851.7
20260903040034 69 134 4.0 13.0 0.00 0.00 0.00 43 851.6
20260903034523 68 148 3.0 5.0 0.00 0.00 0.00 46 851.5
20260903033003 69 145 3.0 6.0 0.00 0.00 0.00 45 851.3
20260903031504 71 155 3.0 6.0 0.00 0.00 0.00 42 851.3
20260903030030 72 168 3.0 5.0 0.00 0.00 0.00 39 851.3
20260903024504 74 172 1.0 4.0 0.00 0.00 0.00 38 851.1
20260903023035 75 178 3.0 9.0 0.00 0.00 0.00 35 850.9
20260903021539 76 221 4.0 7.0 0.00 0.00 0.00 33 850.7
20260903020024 77 180 4.0 8.0 0.00 0.00 0.00 32 850.8
20260903014528 78 169 5.0 18.0 0.00 0.00 0.00 31 850.9
20260903013028 79 186 5.0 14.0 0.00 0.00 0.00 30 850.8
20260903011527 80 227 10.0 16.0 0.00 0.00 0.00 30 850.8
20260903010025 81 207 10.0 18.0 0.00 0.00 0.00 29 850.8
20260903004524 82 226 8.0 17.0 0.00 0.00 0.00 29 850.8
20260903003026 82 222 10.0 16.0 0.00 0.00 0.00 29 851.0
20260903001540 83 225 11.0 20.0 0.00 0.00 0.00 30 851.0
20260903000025 83 228 12.0 20.0 0.00 0.00 0.00 29 850.9
20260902234528 84 230 15.0 20.0 0.00 0.00 0.00 31 851.0
20260902233028 84 180 12.0 19.0 0.00 0.00 0.00 30 851.0
20260902231528 84 173 11.0 23.0 0.00 0.00 0.00 32 851.1
20260902230026 84 182 11.0 20.0 0.00 0.00 0.00 32 850.9
20260902224525 84 181 11.0 27.0 0.00 0.00 0.00 31 851.0
20260902223029 84 234 14.0 24.0 0.00 0.00 0.00 32 851.0
20260902221526 84 169 13.0 21.0 0.00 0.00 0.00 33 851.2
20260902220026 85 227 15.0 24.0 0.00 0.00 0.00 31 851.2
20260902214529 85 242 12.0 20.0 0.00 0.00 0.00 32 851.3
20260902213026 85 218 14.0 25.0 0.00 0.00 0.00 31 851.4
20260902211527 85 175 9.0 24.0 0.00 0.00 0.00 34 851.5
20260902210025 84 192 13.0 27.0 0.00 0.00 0.00 35 851.9
20260902204527 84 170 18.0 32.0 0.00 0.00 0.00 35 851.8
20260902203023 84 243 15.0 25.0 0.00 0.00 0.00 36 852.2
20260902201523 84 240 10.0 23.0 0.00 0.00 0.00 38 852.3
20260902200029 83 215 12.0 22.0 0.00 0.00 0.00 37 852.2
20260902194535 84 172 15.0 24.0 0.00 0.00 0.00 36 852.4
20260902193027 84 183 11.0 28.0 0.00 0.00 0.00 36 852.5
20260902191526 84 212 12.0 23.0 0.00 0.00 0.00 37 852.6
20260902190042 83 242 10.0 28.0 0.00 0.00 0.00 38 852.7
20260902184525 83 225 11.0 23.0 0.00 0.00 0.00 38 852.8
20260902183004 82 178 10.0 26.0 0.00 0.00 0.00 40 853.0
20260902181503 82 189 16.0 24.0 0.00 0.00 0.00 38 853.3
20260902180012 80 202 11.0 20.0 0.00 0.00 0.00 40 853.5
20260902174504 78 179 12.0 22.0 0.00 0.00 0.00 42 853.7
20260902173007 77 173 6.0 16.0 0.00 0.00 0.00 50 854.0
20260902171505 75 144 7.0 14.0 0.00 0.00 0.00 55 853.9
20260902170004 75 130 10.0 16.0 0.00 0.00 0.00 54 853.8
20260902164504 75 142 8.0 13.0 0.00 0.00 0.00 55 853.7
20260902163003 74 116 8.0 14.0 0.00 0.00 0.00 55 853.6
20260902161519 74 116 8.0 13.0 0.00 0.00 0.00 55 853.6
20260902160009 75 130 8.0 14.0 0.00 0.00 0.00 55 853.4
20260902154510 74 130 9.0 15.0 0.00 0.00 0.00 59 853.3
20260902153008 73 119 11.0 16.0 0.00 0.00 0.00 64 853.3
20260902151509 71 120 9.0 15.0 0.00 0.00 0.00 70 853.3
20260902150010 69 134 7.0 13.0 0.00 0.00 0.00 75 853.4
20260902144510 67 123 5.0 8.0 0.00 0.00 0.00 80 853.3
20260902143011 67 119 6.0 10.0 0.00 0.00 0.00 78 853.5
20260902141511 66 107 5.0 7.0 0.00 0.00 0.00 82 853.4
20260902140011 64 115 2.0 4.0 0.00 0.00 0.00 84 853.1
20260902134521 63 126 2.0 3.0 0.00 0.00 0.00 85 852.9
20260902133020 62 139 0.0 2.0 0.00 0.00 0.00 86 852.9
20260902131517 62 138 1.0 2.0 0.00 0.00 0.00 86 852.8
20260902130014 62 121 2.0 6.0 0.00 0.00 0.00 85 852.7
20260902124517 62 106 3.0 6.0 0.00 0.00 0.00 86 852.6
20260902123019 62 116 2.0 4.0 0.00 0.00 0.00 85 852.4
20260902121517 63 113 2.0 6.0 0.00 0.00 0.00 85 852.2
20260902120020 64 134 2.0 4.0 0.00 0.00 0.00 84 852.1
20260902114524 64 134 3.0 6.0 0.00 0.00 0.00 85 852.2
20260902113020 64 136 3.0 7.0 0.00 0.00 0.00 85 852.1
20260902111520 64 140 2.0 5.0 0.00 0.00 0.00 84 852.2
20260902110024 65 138 3.0 7.0 0.00 0.00 0.00 83 852.2
20260902104532 65 124 4.0 7.0 0.00 0.00 0.00 82 852.2